| time (UTC) | temp C | wind direction | speed KPH | gust KPH | rain 1hr cm | rain 24hr cm | rain mn cm | humidity % | barometer mb |
| 20260502194313 | 19 | 205 | 6.4 | 14.5 | 0.00 | 0.00 | 0.00 | 40 | 1013.5 |
| 20260502193807 | 18 | 239 | 6.4 | 14.5 | 0.00 | 0.00 | 0.00 | 37 | 1013.7 |
| 20260502193533 | 18 | 222 | 6.4 | 17.7 | 0.00 | 0.00 | 0.00 | 37 | 1013.8 |
| 20260502192755 | 18 | 252 | 4.8 | 17.7 | 0.00 | 0.00 | 0.00 | 34 | 1013.9 |
| 20260502192248 | 18 | 208 | 4.8 | 12.9 | 0.00 | 0.00 | 0.00 | 37 | 1014.1 |
| 20260502191743 | 18 | 217 | 6.4 | 14.5 | 0.00 | 0.00 | 0.00 | 40 | 1014.1 |
| 20260502191237 | 18 | 201 | 6.4 | 14.5 | 0.00 | 0.00 | 0.00 | 35 | 1014.3 |
| 20260502190731 | 17 | 257 | 4.8 | 14.5 | 0.00 | 0.00 | 0.00 | 38 | 1014.4 |
| 20260502190455 | 17 | 262 | 6.4 | 16.1 | 0.00 | 0.00 | 0.00 | 36 | 1014.5 |
| 20260502185718 | 17 | 224 | 4.8 | 16.1 | 0.00 | 0.00 | 0.00 | 37 | 1014.6 |
| 20260502185446 | 17 | 169 | 4.8 | 11.3 | 0.00 | 0.00 | 0.00 | 40 | 1014.6 |
| 20260502184707 | 16 | 200 | 4.8 | 11.3 | 0.00 | 0.00 | 0.00 | 38 | 1014.7 |
| 20260502184201 | 17 | 181 | 6.4 | 12.9 | 0.00 | 0.00 | 0.00 | 37 | 1014.8 |
| 20260502183655 | 17 | 203 | 8.0 | 12.9 | 0.00 | 0.00 | 0.00 | 38 | 1014.9 |
| 20260502183149 | 17 | 226 | 8.0 | 14.5 | 0.00 | 0.00 | 0.00 | 36 | 1015.0 |
| 20260502182643 | 16 | 170 | 6.4 | 14.5 | 0.00 | 0.00 | 0.00 | 40 | 1015.1 |
| 20260502182137 | 17 | 136 | 6.4 | 14.5 | 0.00 | 0.00 | 0.00 | 36 | 1015.2 |
| 20260502181631 | 17 | 245 | 6.4 | 14.5 | 0.00 | 0.00 | 0.00 | 38 | 1015.2 |
| 20260502181357 | 17 | 215 | 6.4 | 14.5 | 0.00 | 0.00 | 0.00 | 39 | 1015.3 |
| 20260502180620 | 16 | 207 | 6.4 | 14.5 | 0.00 | 0.00 | 0.00 | 37 | 1015.3 |
| 20260502180614 | 16 | 135 | 6.4 | 14.5 | 0.00 | 0.00 | 0.00 | 36 | 1015.4 |
| 20260502170507 | 15 | 170 | 4.8 | 12.9 | 0.00 | 0.00 | 0.00 | 39 | 1016.4 |
| 20260502163937 | 15 | 167 | 4.8 | 11.3 | 0.00 | 0.00 | 0.00 | 39 | 1016.8 |
| 20260502163704 | 15 | 156 | 4.8 | 12.9 | 0.00 | 0.00 | 0.00 | 42 | 1016.8 |
| 20260502162932 | 15 | 239 | 8.0 | 12.9 | 0.00 | 0.00 | 0.00 | 39 | 1016.9 |
| 20260502162705 | 15 | 200 | 6.4 | 12.9 | 0.00 | 0.00 | 0.00 | 39 | 1016.9 |
| 20260502161933 | 15 | 218 | 6.4 | 11.3 | 0.00 | 0.00 | 0.00 | 39 | 1016.9 |
| 20260502161703 | 15 | 186 | 4.8 | 11.3 | 0.00 | 0.00 | 0.00 | 41 | 1017.0 |
| 20260502161207 | 14 | 192 | 4.8 | 11.3 | 0.00 | 0.00 | 0.00 | 39 | 1017.3 |
| 20260502160433 | 14 | 264 | 4.8 | 12.9 | 0.00 | 0.00 | 0.00 | 39 | 1017.3 |
| 20260502151931 | 13 | 166 | 4.8 | 12.9 | 0.00 | 0.00 | 0.00 | 46 | 1017.7 |
| 20260502151431 | 13 | 210 | 1.6 | 8.0 | 0.00 | 0.00 | 0.00 | 49 | 1017.8 |
| 20260502150926 | 12 | 142 | 1.6 | 8.0 | 0.00 | 0.00 | 0.00 | 51 | 1017.9 |
| 20260502150419 | 12 | 175 | 3.2 | 8.0 | 0.00 | 0.00 | 0.00 | 51 | 1017.9 |
| 20260502130359 | 3 | 172 | 0.0 | 3.2 | 0.00 | 0.00 | 0.00 | 85 | 1018.6 |
| 20260502130126 | 3 | 146 | 0.0 | 1.6 | 0.00 | 0.00 | 0.00 | 90 | 1018.6 |
| 20260502123358 | 0 | 150 | 0.0 | 0.0 | 0.00 | 0.00 | 0.00 | 94 | 1018.6 |
| 20260502122857 | 0 | 150 | 0.0 | 0.0 | 0.00 | 0.00 | 0.00 | 95 | 1018.5 |
| 20260502122358 | 0 | 150 | 0.0 | 0.0 | 0.00 | 0.00 | 0.00 | 95 | 1018.5 |
| 20260502121857 | 0 | 150 | 0.0 | 0.0 | 0.00 | 0.00 | 0.00 | 95 | 1018.5 |
| 20260502121358 | 0 | 150 | 0.0 | 0.0 | 0.00 | 0.00 | 0.00 | 95 | 1018.5 |
| 20260502121128 | 0 | 150 | 0.0 | 0.0 | 0.00 | 0.00 | 0.00 | 95 | 1018.5 |
| 20260502120355 | 0 | 150 | 0.0 | 0.0 | 0.00 | 0.00 | 0.00 | 95 | 1018.5 |
| 20260502115855 | 0 | 150 | 0.0 | 0.0 | 0.00 | 0.00 | 0.00 | 95 | 1018.5 |
| 20260502115354 | -1 | 150 | 0.0 | 0.0 | 0.00 | 0.00 | 0.00 | 95 | 1018.5 |
| 20260502114859 | -1 | 150 | 0.0 | 0.0 | 0.00 | 0.00 | 0.00 | 95 | 1018.5 |
| 20260502114853 | -1 | 150 | 0.0 | 0.0 | 0.00 | 0.00 | 0.00 | 95 | 1018.6 |
| 20260502113853 | -1 | 150 | 0.0 | 0.0 | 0.00 | 0.00 | 0.00 | 95 | 1018.6 |
| 20260502113355 | -1 | 150 | 0.0 | 0.0 | 0.00 | 0.00 | 0.00 | 95 | 1018.5 |
| 20260502112855 | -1 | 150 | 0.0 | 0.0 | 0.00 | 0.00 | 0.00 | 94 | 1018.5 |
| 20260502112349 | -1 | 150 | 0.0 | 0.0 | 0.00 | 0.00 | 0.00 | 94 | 1018.5 |
| 20260502111850 | -1 | 150 | 0.0 | 0.0 | 0.00 | 0.00 | 0.00 | 94 | 1018.4 |
| 20260502111349 | -2 | 150 | 0.0 | 0.0 | 0.00 | 0.00 | 0.00 | 94 | 1018.4 |
| 20260502110849 | -2 | 150 | 0.0 | 0.0 | 0.00 | 0.00 | 0.00 | 94 | 1018.4 |
| 20260502110351 | -2 | 150 | 0.0 | 0.0 | 0.00 | 0.00 | 0.00 | 94 | 1018.4 |
| 20260502105849 | -2 | 150 | 0.0 | 0.0 | 0.00 | 0.00 | 0.00 | 94 | 1018.3 |
| 20260502105625 | -2 | 150 | 0.0 | 0.0 | 0.00 | 0.00 | 0.00 | 94 | 1018.4 |
| 20260502105351 | -2 | 150 | 0.0 | 0.0 | 0.00 | 0.00 | 0.00 | 94 | 1018.3 |
| 20260502104351 | -2 | 150 | 0.0 | 0.0 | 0.00 | 0.00 | 0.00 | 94 | 1018.3 |
| 20260502103846 | -2 | 150 | 0.0 | 0.0 | 0.00 | 0.00 | 0.00 | 94 | 1018.3 |
| 20260502103346 | -2 | 150 | 0.0 | 0.0 | 0.00 | 0.00 | 0.00 | 94 | 1018.3 |
| 20260502102851 | -2 | 150 | 0.0 | 0.0 | 0.00 | 0.00 | 0.00 | 93 | 1018.3 |
| 20260502102846 | -2 | 150 | 0.0 | 0.0 | 0.00 | 0.00 | 0.00 | 93 | 1018.3 |
| 20260502102119 | -2 | 150 | 0.0 | 0.0 | 0.00 | 0.00 | 0.00 | 93 | 1018.3 |
| 20260502101346 | -2 | 150 | 0.0 | 0.0 | 0.00 | 0.00 | 0.00 | 93 | 1018.3 |
| 20260502100847 | -2 | 150 | 0.0 | 0.0 | 0.00 | 0.00 | 0.00 | 93 | 1018.3 |
| 20260502100345 | -2 | 150 | 0.0 | 0.0 | 0.00 | 0.00 | 0.00 | 93 | 1018.3 |
| 20260502100118 | -2 | 150 | 0.0 | 0.0 | 0.00 | 0.00 | 0.00 | 93 | 1018.3 |
| 20260502090839 | -1 | 150 | 0.0 | 0.0 | 0.00 | 0.00 | 0.00 | 93 | 1018.0 |
| 20260502090608 | -1 | 150 | 0.0 | 0.0 | 0.00 | 0.00 | 0.00 | 92 | 1018.0 |
| 20260502071323 | -1 | 150 | 0.0 | 0.0 | 0.00 | 0.00 | 0.00 | 90 | 1018.2 |
| 20260502070821 | 0 | 150 | 0.0 | 0.0 | 0.00 | 0.00 | 0.00 | 90 | 1018.3 |
| 20260502070552 | 0 | 150 | 0.0 | 0.0 | 0.00 | 0.00 | 0.00 | 90 | 1018.3 |
| 20260502065818 | 0 | 150 | 0.0 | 0.0 | 0.00 | 0.00 | 0.00 | 90 | 1018.3 |
| 20260502065321 | 0 | 150 | 0.0 | 0.0 | 0.00 | 0.00 | 0.00 | 90 | 1018.3 |
| 20260502064818 | 0 | 150 | 0.0 | 0.0 | 0.00 | 0.00 | 0.00 | 90 | 1018.4 |
| 20260502064317 | 0 | 150 | 0.0 | 0.0 | 0.00 | 0.00 | 0.00 | 90 | 1018.4 |
| 20260502063814 | 0 | 150 | 0.0 | 0.0 | 0.00 | 0.00 | 0.00 | 89 | 1018.4 |
| 20260502063314 | 0 | 150 | 0.0 | 0.0 | 0.00 | 0.00 | 0.00 | 89 | 1018.5 |
| 20260502062815 | 0 | 150 | 0.0 | 0.0 | 0.00 | 0.00 | 0.00 | 89 | 1018.5 |
| 20260502062544 | 0 | 150 | 0.0 | 0.0 | 0.00 | 0.00 | 0.00 | 88 | 1018.5 |
| 20260502061817 | 0 | 150 | 0.0 | 0.0 | 0.00 | 0.00 | 0.00 | 87 | 1018.5 |
| 20260502061811 | 0 | 150 | 0.0 | 0.0 | 0.00 | 0.00 | 0.00 | 87 | 1018.5 |
| 20260502060814 | 0 | 150 | 0.0 | 0.0 | 0.00 | 0.00 | 0.00 | 87 | 1018.5 |
| 20260502060810 | 0 | 150 | 0.0 | 0.0 | 0.00 | 0.00 | 0.00 | 87 | 1018.5 |
| 20260502055805 | 1 | 150 | 0.0 | 0.0 | 0.00 | 0.00 | 0.00 | 87 | 1018.5 |
| 20260502055259 | 1 | 150 | 0.0 | 0.0 | 0.00 | 0.00 | 0.00 | 88 | 1018.5 |
| 20260502054752 | 0 | 150 | 0.0 | 0.0 | 0.00 | 0.00 | 0.00 | 87 | 1018.5 |
| 20260502054245 | 1 | 150 | 0.0 | 0.0 | 0.00 | 0.00 | 0.00 | 87 | 1018.6 |
| 20260502053739 | 0 | 150 | 0.0 | 0.0 | 0.00 | 0.00 | 0.00 | 87 | 1018.6 |
| 20260502053233 | 0 | 150 | 0.0 | 0.0 | 0.00 | 0.00 | 0.00 | 86 | 1018.6 |
| 20260502052727 | 0 | 150 | 0.0 | 0.0 | 0.00 | 0.00 | 0.00 | 87 | 1018.6 |
| 20260502052453 | 0 | 150 | 0.0 | 0.0 | 0.00 | 0.00 | 0.00 | 87 | 1018.5 |
| 20260502051715 | 0 | 150 | 0.0 | 0.0 | 0.00 | 0.00 | 0.00 | 86 | 1018.5 |
| 20260502051209 | 0 | 150 | 0.0 | 0.0 | 0.00 | 0.00 | 0.00 | 86 | 1018.5 |
| 20260502050936 | 0 | 150 | 0.0 | 0.0 | 0.00 | 0.00 | 0.00 | 85 | 1018.5 |
| 20260502050159 | 0 | 150 | 0.0 | 0.0 | 0.00 | 0.00 | 0.00 | 84 | 1018.6 |
| 20260502045652 | 1 | 150 | 0.0 | 0.0 | 0.00 | 0.00 | 0.00 | 83 | 1018.6 |
| 20260502045145 | 1 | 150 | 0.0 | 0.0 | 0.00 | 0.00 | 0.00 | 84 | 1018.5 |
| 20260502044639 | 1 | 150 | 0.0 | 0.0 | 0.00 | 0.00 | 0.00 | 84 | 1018.5 |
| 20260502044133 | 1 | 151 | 0.0 | 0.0 | 0.00 | 0.00 | 0.00 | 86 | 1018.5 |
| 20260502043629 | 0 | 150 | 0.0 | 0.0 | 0.00 | 0.00 | 0.00 | 84 | 1018.5 |
| 20260502043122 | 0 | 151 | 0.0 | 0.0 | 0.00 | 0.00 | 0.00 | 84 | 1018.5 |
| 20260502042620 | 0 | 151 | 0.0 | 0.0 | 0.00 | 0.00 | 0.00 | 81 | 1018.5 |
| 20260502042117 | 0 | 150 | 0.0 | 0.0 | 0.00 | 0.00 | 0.00 | 81 | 1018.5 |
| 20260502041615 | 1 | 150 | 0.0 | 0.0 | 0.00 | 0.00 | 0.00 | 80 | 1018.5 |
| 20260502041112 | 1 | 150 | 0.0 | 0.0 | 0.00 | 0.00 | 0.00 | 80 | 1018.5 |
| 20260502040611 | 1 | 150 | 0.0 | 0.0 | 0.00 | 0.00 | 0.00 | 80 | 1018.5 |
| 20260502040110 | 1 | 151 | 0.0 | 0.0 | 0.00 | 0.00 | 0.00 | 80 | 1018.5 |
| 20260502035612 | 1 | 151 | 0.0 | 0.0 | 0.00 | 0.00 | 0.00 | 80 | 1018.5 |
| 20260502035108 | 1 | 150 | 0.0 | 0.0 | 0.00 | 0.00 | 0.00 | 79 | 1018.6 |
| 20260502034845 | 2 | 150 | 0.0 | 0.0 | 0.00 | 0.00 | 0.00 | 77 | 1018.6 |
| 20260502034608 | 2 | 150 | 0.0 | 0.0 | 0.00 | 0.00 | 0.00 | 77 | 1018.6 |
| 20260502033602 | 2 | 151 | 0.0 | 0.0 | 0.00 | 0.00 | 0.00 | 76 | 1018.6 |
| 20260502033103 | 2 | 150 | 0.0 | 0.0 | 0.00 | 0.00 | 0.00 | 76 | 1018.6 |
| 20260502032605 | 2 | 150 | 0.0 | 0.0 | 0.00 | 0.00 | 0.00 | 74 | 1018.6 |
| 20260502032100 | 2 | 150 | 0.0 | 0.0 | 0.00 | 0.00 | 0.00 | 74 | 1018.6 |
| 20260502031558 | 3 | 150 | 0.0 | 0.0 | 0.00 | 0.00 | 0.00 | 74 | 1018.5 |
| 20260502031057 | 3 | 150 | 0.0 | 0.0 | 0.00 | 0.00 | 0.00 | 75 | 1018.5 |
| 20260502030600 | 3 | 150 | 0.0 | 0.0 | 0.00 | 0.00 | 0.00 | 72 | 1018.6 |
| 20260502030329 | 3 | 150 | 0.0 | 0.0 | 0.00 | 0.00 | 0.00 | 66 | 1018.5 |
| 20260502025558 | 4 | 150 | 0.0 | 0.0 | 0.00 | 0.00 | 0.00 | 65 | 1018.6 |
| 20260502025057 | 5 | 151 | 0.0 | 0.0 | 0.00 | 0.00 | 0.00 | 65 | 1018.6 |
| 20260502024924 | 5 | 150 | 0.0 | 0.0 | 0.00 | 0.00 | 0.00 | 63 | 1018.5 |
| 20260502024836 | 5 | 150 | 0.0 | 0.0 | 0.00 | 0.00 | 0.00 | 63 | 1018.6 |
| 20260502023539 | 5 | 150 | 0.0 | 0.0 | 0.00 | 0.00 | 0.00 | 61 | 1018.5 |
| 20260502023032 | 5 | 151 | 0.0 | 0.0 | 0.00 | 0.00 | 0.00 | 60 | 1018.5 |
| 20260502022529 | 5 | 150 | 0.0 | 0.0 | 0.00 | 0.00 | 0.00 | 60 | 1018.5 |
| 20260502022030 | 5 | 150 | 0.0 | 0.0 | 0.00 | 0.00 | 0.00 | 60 | 1018.5 |
| 20260502021528 | 5 | 151 | 0.0 | 0.0 | 0.00 | 0.00 | 0.00 | 58 | 1018.4 |
| 20260502021302 | 5 | 150 | 0.0 | 0.0 | 0.00 | 0.00 | 0.00 | 59 | 1018.4 |
| 20260502020528 | 6 | 172 | 0.0 | 0.0 | 0.00 | 0.00 | 0.00 | 57 | 1018.3 |
| 20260502020027 | 6 | 172 | 0.0 | 0.0 | 0.00 | 0.00 | 0.00 | 55 | 1018.3 |
| 20260502015524 | 6 | 172 | 0.0 | 0.0 | 0.00 | 0.00 | 0.00 | 54 | 1018.2 |
| 20260502015255 | 6 | 172 | 0.0 | 0.0 | 0.00 | 0.00 | 0.00 | 54 | 1018.2 |
| 20260502014522 | 7 | 172 | 0.0 | 0.0 | 0.00 | 0.00 | 0.00 | 53 | 1018.1 |
| 20260502014023 | 7 | 172 | 0.0 | 0.0 | 0.00 | 0.00 | 0.00 | 51 | 1018.0 |
| 20260502013522 | 7 | 172 | 0.0 | 0.0 | 0.00 | 0.00 | 0.00 | 52 | 1018.0 |
| 20260502013255 | 7 | 172 | 0.0 | 0.0 | 0.00 | 0.00 | 0.00 | 52 | 1017.9 |
| 20260502012520 | 7 | 172 | 0.0 | 0.0 | 0.00 | 0.00 | 0.00 | 49 | 1017.9 |
| 20260502012021 | 8 | 172 | 0.0 | 0.0 | 0.00 | 0.00 | 0.00 | 50 | 1017.9 |
| 20260502011519 | 8 | 172 | 0.0 | 0.0 | 0.00 | 0.00 | 0.00 | 50 | 1017.9 |
| 20260502011022 | 8 | 172 | 0.0 | 1.6 | 0.00 | 0.00 | 0.00 | 48 | 1017.9 |
| 20260502010517 | 9 | 172 | 0.0 | 1.6 | 0.00 | 0.00 | 0.00 | 48 | 1017.9 |
| 20260502010017 | 9 | 160 | 0.0 | 1.6 | 0.00 | 0.00 | 0.00 | 46 | 1017.9 |
| 20260502005517 | 10 | 158 | 0.0 | 0.0 | 0.00 | 0.00 | 0.00 | 45 | 1017.8 |
| 20260502005243 | 10 | 149 | 0.0 | 0.0 | 0.00 | 0.00 | 0.00 | 44 | 1017.8 |
| 20260502004505 | 11 | 136 | 0.0 | 0.0 | 0.00 | 0.00 | 0.00 | 41 | 1017.8 |
| 20260502004232 | 11 | 158 | 0.0 | 1.6 | 0.00 | 0.00 | 0.00 | 39 | 1017.8 |
| 20260502003455 | 11 | 166 | 0.0 | 1.6 | 0.00 | 0.00 | 0.00 | 36 | 1017.7 |
| 20260502002947 | 11 | 156 | 0.0 | 0.0 | 0.00 | 0.00 | 0.00 | 37 | 1017.8 |
| 20260502002441 | 11 | 51 | 0.0 | 0.0 | 0.00 | 0.00 | 0.00 | 37 | 1017.9 |
| 20260502001935 | 11 | 167 | 0.0 | 0.0 | 0.00 | 0.00 | 0.00 | 40 | 1017.9 |
| 20260502001700 | 11 | 153 | 0.0 | 0.0 | 0.00 | 0.00 | 0.00 | 41 | 1017.9 |
| 20260502000923 | 11 | 154 | 0.0 | 0.0 | 0.00 | 0.00 | 0.00 | 39 | 1017.9 |
| 20260502000417 | 11 | 169 | 0.0 | 0.0 | 0.00 | 0.00 | 0.00 | 40 | 1017.9 |
| 20260501235911 | 12 | 105 | 0.0 | 3.2 | 0.00 | 0.00 | 0.00 | 35 | 1017.9 |
| 20260501235404 | 12 | 359 | 0.0 | 3.2 | 0.00 | 0.00 | 0.00 | 33 | 1017.9 |
| 20260501234859 | 12 | 354 | 0.0 | 3.2 | 0.00 | 0.00 | 0.00 | 31 | 1017.9 |
| 20260501234356 | 12 | 351 | 0.0 | 3.2 | 0.00 | 0.00 | 0.00 | 32 | 1017.9 |
| 20260501233855 | 12 | 6 | 0.0 | 1.6 | 0.00 | 0.00 | 0.00 | 34 | 1017.9 |
| 20260501233355 | 12 | 4 | 0.0 | 3.2 | 0.00 | 0.00 | 0.00 | 34 | 1017.9 |
| 20260501232852 | 12 | 113 | 0.0 | 3.2 | 0.00 | 0.00 | 0.00 | 36 | 1017.9 |
| 20260501232351 | 12 | 11 | 0.0 | 3.2 | 0.00 | 0.00 | 0.00 | 33 | 1017.9 |
| 20260501232118 | 12 | 180 | 0.0 | 3.2 | 0.00 | 0.00 | 0.00 | 37 | 1017.9 |
| 20260501231348 | 12 | 253 | 1.6 | 6.4 | 0.00 | 0.00 | 0.00 | 34 | 1017.9 |
| 20260501230849 | 12 | 0 | 1.6 | 8.0 | 0.00 | 0.00 | 0.00 | 31 | 1017.9 |
| 20260501230618 | 13 | 351 | 1.6 | 8.0 | 0.00 | 0.00 | 0.00 | 30 | 1017.9 |
| 20260501225847 | 13 | 146 | 1.6 | 6.4 | 0.00 | 0.00 | 0.00 | 31 | 1017.8 |
| 20260501225348 | 13 | 110 | 1.6 | 6.4 | 0.00 | 0.00 | 0.00 | 28 | 1017.9 |
| 20260501224848 | 14 | 316 | 1.6 | 8.0 | 0.00 | 0.00 | 0.00 | 29 | 1017.9 |
| 20260501224346 | 13 | 343 | 1.6 | 8.0 | 0.00 | 0.00 | 0.00 | 29 | 1017.9 |
| 20260501223846 | 14 | 359 | 1.6 | 6.4 | 0.00 | 0.00 | 0.00 | 28 | 1017.9 |
| 20260501223346 | 15 | 358 | 1.6 | 12.9 | 0.00 | 0.00 | 0.00 | 28 | 1017.9 |
| 20260501222846 | 15 | 75 | 1.6 | 12.9 | 0.00 | 0.00 | 0.00 | 28 | 1017.9 |
| 20260501222346 | 15 | 167 | 1.6 | 4.8 | 0.00 | 0.00 | 0.00 | 32 | 1017.9 |
| 20260501221847 | 14 | 226 | 1.6 | 6.4 | 0.00 | 0.00 | 0.00 | 37 | 1018.0 |
| 20260501221341 | 13 | 335 | 1.6 | 6.4 | 0.00 | 0.00 | 0.00 | 29 | 1017.9 |
| 20260501220834 | 14 | 131 | 1.6 | 6.4 | 0.00 | 0.00 | 0.00 | 30 | 1017.9 |
| 20260501220329 | 14 | 291 | 1.6 | 8.0 | 0.00 | 0.00 | 0.00 | 27 | 1018.0 |
| 20260501215823 | 15 | 359 | 3.2 | 9.7 | 0.00 | 0.00 | 0.00 | 28 | 1018.0 |
| 20260501215317 | 15 | 278 | 3.2 | 11.3 | 0.00 | 0.00 | 0.00 | 28 | 1018.0 |
| 20260501214811 | 15 | 72 | 1.6 | 9.7 | 0.00 | 0.00 | 0.00 | 31 | 1017.8 |
| 20260501214305 | 15 | 329 | 1.6 | 6.4 | 0.00 | 0.00 | 0.00 | 31 | 1018.0 |
| 20260501213759 | 15 | 280 | 1.6 | 9.7 | 0.00 | 0.00 | 0.00 | 34 | 1017.9 |
| 20260501213253 | 15 | 252 | 1.6 | 9.7 | 0.00 | 0.00 | 0.00 | 32 | 1018.0 |
| 20260501212747 | 15 | 67 | 1.6 | 8.0 | 0.00 | 0.00 | 0.00 | 32 | 1018.1 |
| 20260501212241 | 14 | 5 | 1.6 | 8.0 | 0.00 | 0.00 | 0.00 | 29 | 1018.0 |
| 20260501211734 | 14 | 219 | 1.6 | 8.0 | 0.00 | 0.00 | 0.00 | 33 | 1018.0 |
| 20260501211229 | 14 | 152 | 1.6 | 8.0 | 0.00 | 0.00 | 0.00 | 36 | 1018.0 |
| 20260501210729 | 13 | 141 | 1.6 | 6.4 | 0.00 | 0.00 | 0.00 | 31 | 1018.2 |
| 20260501210459 | 13 | 340 | 1.6 | 8.0 | 0.00 | 0.00 | 0.00 | 29 | 1018.3 |
| 20260501205727 | 14 | 356 | 1.6 | 9.7 | 0.00 | 0.00 | 0.00 | 29 | 1018.3 |
| 20260501205229 | 15 | 4 | 1.6 | 9.7 | 0.00 | 0.00 | 0.00 | 29 | 1018.2 |
| 20260501204726 | 15 | 359 | 1.6 | 12.9 | 0.00 | 0.00 | 0.00 | 31 | 1018.3 |
| 20260501204459 | 14 | 166 | 1.6 | 9.7 | 0.00 | 0.00 | 0.00 | 34 | 1018.1 |
| 20260501203726 | 14 | 4 | 1.6 | 9.7 | 0.00 | 0.00 | 0.00 | 30 | 1018.3 |
| 20260501203226 | 14 | 336 | 0.0 | 6.4 | 0.00 | 0.00 | 0.00 | 28 | 1018.4 |
| 20260501202726 | 13 | 18 | 1.6 | 14.5 | 0.00 | 0.00 | 0.00 | 31 | 1018.4 |
| 20260501202225 | 13 | 17 | 1.6 | 14.5 | 0.00 | 0.00 | 0.00 | 30 | 1018.4 |
| 20260501201727 | 13 | 314 | 1.6 | 6.4 | 0.00 | 0.00 | 0.00 | 35 | 1018.4 |
| 20260501201225 | 13 | 202 | 1.6 | 4.8 | 0.00 | 0.00 | 0.00 | 36 | 1018.4 |
| 20260501200952 | 12 | 345 | 1.6 | 6.4 | 0.00 | 0.00 | 0.00 | 35 | 1018.4 |
| 20260501200222 | 12 | 215 | 1.6 | 6.4 | 0.00 | 0.00 | 0.00 | 34 | 1018.5 |
| 20260501195723 | 12 | 326 | 1.6 | 4.8 | 0.00 | 0.00 | 0.00 | 32 | 1018.6 |
| 20260501195221 | 12 | 353 | 1.6 | 17.7 | 0.00 | 0.00 | 0.00 | 36 | 1018.6 |
| 20260501194721 | 12 | 47 | 1.6 | 17.7 | 0.00 | 0.00 | 0.00 | 35 | 1018.6 |